Home   Weather   Kapurthala   Past weeks

Flag for India Past Weather in Kapurthala, Punjab, India — Yesterday and Last 2 Weeks

Now
88 °F

Fog.


Feels Like: 112 °F
Forecast: 84 / 92 °F
Wind: No wind

Location: Amritsar Airport

Current Time: Jul 28, 2017 at 8:44:13 pm

Latest Report: Jul 28, 2017 at 8:00 pm


Visibility: 3 mi

Pressure: 29.59 "Hg

Humidity: 89%

Dew Point: 84 °F

Location of KapurthalaLocation

Past Weather in Kapurthala — Graph

°F

Kapurthala Temperature Yesterday

Maximum temperature yesterday: 93 °F (at 12:30 pm)
Minimum temperature yesterday: 79 °F (at 3:30 pm)
Average temperature yesterday: 86 °F

High & Low Weather Summary for the Past Weeks

 TemperatureHumidityPressure
High95 °F (Jul 14, 2:00 pm)100% (Jul 13, 7:30 pm)29.68 "Hg (Jul 13, 7:30 pm)
Low77 °F (Jul 18, 12:00 pm)60% (Jul 19, 5:00 pm)29.42 "Hg (Jul 19, 5:00 pm)
Average87 °F93%29.55 "Hg
* Reported Jul 13 7:30 pm — Jul 28 7:30 pm, Kapurthala. Weather by CustomWeather, © 2017

Note: Actual official high and low records may vary slightly from our data, if they occured in-between our weather recording intervals... More about our weather records

Advertising

Kapurthala Weather History for the Previous 24 Hours

Scroll right to see more
 ConditionsComfort  
Time TempWeatherWind HumidityBarometerVisibility
7:30 pm
Fri, Jul 28
88 °FFog.No wind89%29.56 "Hg3 mi
7:05 pm90 °FFog.2 mph84%29.56 "Hg3 mi
6:30 pm90 °FFog.14 mph84%29.56 "Hg3 mi
6:00 pm90 °FFog.7 mph79%29.56 "Hg3 mi
5:30 pm91 °FScattered clouds.3 mph80%29.56 "Hg4 mi
5:00 pm91 °FScattered clouds.2 mph80%29.56 "Hg4 mi
4:30 pm91 °FScattered clouds.2 mph80%29.56 "Hg4 mi
4:00 pm91 °FScattered clouds.5 mph75%29.56 "Hg4 mi
3:30 pm91 °FScattered clouds.3 mph75%29.62 "Hg4 mi
3:00 pm91 °FScattered clouds.5 mph75%29.62 "Hg4 mi
2:30 pm91 °FScattered clouds.6 mph75%29.62 "Hg4 mi
2:00 pm90 °FScattered clouds.6 mph79%29.62 "Hg4 mi
1:30 pm90 °FFog.7 mph79%29.62 "Hg3 mi
1:00 pm90 °FFog.7 mph79%29.65 "Hg3 mi
12:30 pm90 °FFog.5 mph79%29.65 "Hg3 mi
12:00 pm90 °FFog.8 mph79%29.65 "Hg3 mi
11:30 am90 °FFog.6 mph84%29.68 "Hg3 mi
11:00 am90 °FFog.2 mph84%29.65 "Hg2 mi
10:30 am88 °FFog.2 mph89%29.65 "Hg2 mi
10:00 am88 °FFog.2 mph89%29.65 "Hg2 mi
9:00 am86 °FFog.2 mph94%29.65 "Hg2 mi
8:30 am84 °FFog.No wind100%29.65 "Hg2 mi
7:30 am84 °FFog.2 mph100%29.65 "Hg1 mi
7:00 am82 °FFog.No wind100%29.65 "Hg1 mi
6:30 am81 °FFog.No wind100%29.62 "Hg1 mi
6:00 am81 °FFog.No wind100%29.62 "Hg1 mi
5:30 am81 °FFog.2 mph100%29.62 "Hg1 mi
5:00 am82 °FFog.No wind100%29.62 "Hg1 mi
4:30 am82 °FFog.No wind100%29.62 "Hg2 mi
3:30 am82 °FFog.No wind100%29.62 "Hg2 mi
3:00 am82 °FFog.No wind100%29.62 "Hg2 mi
2:30 am82 °FFog.2 mph100%29.62 "Hg2 mi
2:00 am82 °FFog.3 mph100%29.62 "Hg2 mi
1:30 am82 °FFog.3 mph100%29.62 "Hg2 mi
1:00 am82 °FFog.2 mph100%29.62 "Hg2 mi
12:30 am82 °FFog.No wind100%29.62 "Hg2 mi
12:00 am84 °FFog.No wind100%29.62 "Hg2 mi
11:30 pm
Thu, Jul 27
84 °FFog.2 mph100%29.62 "Hg2 mi
11:00 pm84 °FFog.2 mph100%29.62 "Hg2 mi
10:00 pm84 °FFog.2 mph100%29.62 "Hg2 mi
9:30 pm84 °FFog.6 mph100%29.59 "Hg2 mi
8:30 pm84 °FFog.No wind100%29.59 "Hg2 mi
8:00 pm84 °FFog.No wind100%29.59 "Hg2 mi
Weather by CustomWeather, © 2017

See weather overviewHow to use our weather pages